ATLAS 5 CENTAUR DEB, 47339

Orbit data source: Space-Track

ATLAS 5 CENTAUR DEB, 47339 is space debris in HEO originally from a launch on Wed, 17 Oct 2018 UTC launched from the Air Force Eastern Test Range (AFETR). Debris objects in space refer to the collection of defunct objects orbiting the Earth. Examples of debris include non-operational satellites, rocket bodies, and fragments generated from explosions, collisions, or faulty payload assembly.

Loading next visibility...
Identifier
47339, 2018-079EL
Orbit
HEO
Country
Flag of USUS
Related business
Flag of USUnited Launch Alliance/Lockheed Martin (US)
Manufacturer
ULA Decatur
Mission
Spacecraft
Bus & Motor
Unknown
Mass
Unknown
Launch date (UTC)
2018-10-17 (7 years ago)
Launch vehicle
Unknown
Launch site
Air Force Eastern Test Range (AFETR)
Object type
Payload
Rocket body
Debris
Shape & HBR
Unknown shape, 1.1 m
Radar Cross Section
RCS unknown

Expand to show TLE details & history
Last TLE update: 7 months ago

TLE from 7 months ago
0 ATLAS 5 CENTAUR DEB
1 47339U 18079EL  25137.79247665 -.00000064  00000-0  00000-0 0  9996
2 47339  12.5844  65.6077 4409548 270.7069  40.6924  1.93072523 30794
Epoch: 2025-05-17T19:01Z
TLE epoch observation values (Epoch: 2025-05-17T19:01:09.982Z)
Latitude
0.00002°
Longitude
-95.50691°
Altitude
15,453.342 km
Speed
4.678 km/s
True Right ascension
04h 22m 03s
True Declination
0° 00' 00"
Sunlit
Object was in daylight at epoch
Visualization orbit readout
Latitude
Unknown
Longitude
Unknown
Altitude
Unknown
Speed
Unknown
Apparent Right ascension
Unknown
Apparent Declination
Unknown
Sunlit
N/A
Visualization observer readout
Local Sidereal Time
21:29:04
Azimuth
Unknown
Elevation
Unknown
Doppler factor
Unknown
Orbital elements
Apogee altitude
32,880.805 km
Perigee altitude
8,853.099 km
Semi-major axis
27,245.089 km
Eccentricity
0.44095
Inclination
12.5844°
RAAN
65.6077°
Arg. of periapsis
270.7069°
True anomaly
89.35109°
Mean anomaly
40.6924°
Eccentric anomaly
63.25421°
Mean motion
0.48263 °/min
Orbital period
745.92 mins
BSTAR
0
Loading maneuver chart data...
Computing Atmospheric mass density...

Documentation

Showing up to 5 results
|